Location: The Saddle
(36.8333°N, 80.3417°W)
Time: 00:20:13
(UTC-05:00)

A-11 Canister half - Pass Details

Date: 14 December 2023
Orbit: 1525 x 1682 km, 47.3° (Epoch: 11 November)

Event Time Altitude Azimuth Distance (km) Brightness Sun altitude
Rises 00:31:04 0° 300° (WNW) 4,918 - -76.0°
Reaches altitude 10° 00:34:29 10° 294° (WNW) 3,914 - -75.8°
Maximum altitude 00:43:33 41° 229° (SW) 2,215 - -75.1°
Drops below altitude 10° 00:52:22 10° 163° (SSE) 3,792 - -74.3°
Sets 00:55:38 0° 156° (SSE) 4,752 - -73.9°
